sat.trackr.live / text

‹ back to catalog

UWE-3

NORAD 39446 · 2013-066AG

PAYLOAD ACTIVE UNKNOWN

§ Identity

Operator
Country
GER
Launch date
2013-11-21
Launch site
DLS
Launch vehicle
Mass (kg)
RCS (m²)
0.03

Purposes: comms, tech_demo

External: N2YO · Heavens-Above · Gunter

§ Orbital elements

Epoch: 2026-09-19T07:26:00.708288Z

Period
96.15 min
Inclination
97.8815°
Eccentricity
0.0048795
Mean motion
14.97587625 rev/d
Perigee alt
540.4 km
Apogee alt
608.3 km
Semi-major
6,952.5 km
B*
2.8185e-4
RAAN
219.0999°
Arg perigee
8.1790°
Mean anomaly
352.0216°
Rev number
69,166

§ Raw data

UWE-31 39446U 13066AG  26262.30973042  .00003310  00000+0  28185-3 0  99912 39446  97.8815 219.0999 0048795   8.1790 352.0216 14.97587625691664

JSON: /api/v1/satellites/39446 · /tle

For live sub-satellite position, see the globe view (requires WebGL).

§ Visibility from observer

Set your observer location to see the next 7 days of passes ≥ 10°. The values pass through the URL so the page stays shareable.

No JS? Fill the form by hand. The geolocation button needs JavaScript.

§ Radio — SatNOGS DB

ModeDescriptionDownlinkUplink
FSK 9k6 FSK TLM 437.385 MHz
FSK PE0SAT - 9k6 FSK TLM 437.384 MHz
FSK Transmitter 436.395 MHz

3 transmitters · refreshed weekly from db.satnogs.org